sat.trackr.live / text

‹ back to catalog

STARLINK-34791

NORAD 65891 · 2025-224K

PAYLOAD ACTIVE UNKNOWN

§ Identity

Operator
Country
US
Launch date
2025-10-07
Launch site
AFETR
Launch vehicle
Mass (kg)
RCS (m²)

Purposes: comms

External: N2YO · Heavens-Above · Gunter

§ Orbital elements

Epoch: 2026-09-20T01:24:03.233664Z

Period
93.85 min
Inclination
53.1588°
Eccentricity
0.0001687
Mean motion
15.34404085 rev/d
Perigee alt
461.5 km
Apogee alt
463.8 km
Semi-major
6,840.8 km
B*
7.1454e-4
RAAN
187.7697°
Arg perigee
81.1372°
Mean anomaly
278.9822°
Rev number
5,464

§ Raw data

STARLINK-347911 65891U 25224K   26263.05837076  .00023846  00000+0  71454-3 0  99952 65891  53.1588 187.7697 0001687  81.1372 278.9822 15.34404085 54641

JSON: /api/v1/satellites/65891 · /tle

For live sub-satellite position, see the globe view (requires WebGL).

§ Visibility from observer

Set your observer location to see the next 7 days of passes ≥ 10°. The values pass through the URL so the page stays shareable.

No JS? Fill the form by hand. The geolocation button needs JavaScript.